716  
ASUS43 KDTX 290510  
RWRMI  
MICHIGAN HOURLY REGIONAL WEATHER ROUNDUP  
NATIONAL WEATHER SERVICE DETROIT/PONTIAC MI  
100 AM EDT SAT APR 29 2017  
 
NOTE: "FAIR" INDICATES FEW OR NO CLOUDS BELOW 12,000 FEET WITH NO  
SIGNIFICANT WEATHER AND/OR TO VISIBILITY
.  
 
MIZ047>049-052>055-059>063-066>070-074>076-081>083-290600-  
SOUTHEAST LOWER MICHIGAN  
 
CITY SKY/WX TMP DP RH WIND PRES REMARKS
 
ADRIAN LGT RAIN 53 51 93 CALM 29.99R  
ALMA CLOUDY 53 44 69 N10G16 30.00R  
ANN ARBOR CLOUDY 54 50 86 S5 29.98R  
BAD AXE CLOUDY 40 34 77 N9 30.04R WCI 35  
CARO CLOUDY 45 40 83 N5 30.00R  
DETROIT CITY CLOUDY 57 47 69 S6 29.99R  
DETROIT CLOUDY 56 50 80 S6 30.00R  
FLINT CLOUDY 56 48 74 SW5 29.99R  
GROSSE ILE CLOUDY 55 51 87 CALM 29.98R  
HILLSDALE LGT RAIN 52 46 82 CALM 29.98S  
HOWELL CLOUDY 54 46 75 CALM 30.00R  
 
CITY SKY/WX TMP DP RH WIND PRES REMARKS
 
JACKSON CLOUDY 54 46 74 CALM 30.00R  
LAMBERTVILLE CLOUDY 53 52 95 CALM 29.98F  
LANSING CLOUDY 57 46 66 S7 30.00R  
LAPEER CLOUDY 57 47 68 SW6 29.99R  
MASON CLOUDY 53 49 83 CALM 29.99R  
MONROE RAIN 55 53 92 CALM 29.98S  
MT. CLEMENS MOCLDY 54 49 82 CALM 29.97R  
PONTIAC CLOUDY 54 48 80 W3 29.98R  
PORT HOPE N/A 42 35 76 N17G23 30.02R  
PORT HURON PTCLDY 52 46 82 CALM 29.99R  
TRI CITIES CLOUDY 46 42 86 NE16 30.02R  
MIDLAND CLOUDY 47 40 76 NE8 30.01R  
TROY MOCLDY 56 48 73 SW7 30.01R  
SAGINAW HB CLOUDY 48 41 76 N13 30.00R  

 
MIZ043>046-050>051-056>058-064>065-071>073-077>080-290600-  
SOUTHWEST LOWER MICHIGAN  
 
CITY SKY/WX TMP DP RH WIND PRES REMARKS
 
BATTLE CREEK CLOUDY 53 47 79 CALM 30.01R  
BENTON HARBOR CLOUDY 50 44 80 N5 30.00R  
BIG RAPIDS CLOUDY 43 37 77 N9 30.02R  
COLDWATER CLOUDY 54 48 80 SE6 29.98R  
FREMONT CLOUDY 45 36 70 N8G16 30.02R  
HOLLAND CLOUDY 52 37 56 NE10G16 30.02R  
GRAND RAPIDS CLOUDY 53 43 68 N10 30.00R  
IONIA CLOUDY 54 42 65 N7 30.00R  
KALAMAZOO CLOUDY 53 45 74 W3 30.00R  
LUDINGTON CLOUDY 42 40 94 N3 30.04R  
MARSHALL CLOUDY 49 47 92 S3 29.99R  
MOUNT PLEASANT CLOUDY 48 40 73 N9 30.02R  
MUSKEGON CLOUDY 48 38 68 N9 30.03R  
SOUTH HAVEN CLOUDY 51 47 84 CALM 30.00R  

 
MIZ016>042-290600-  
NORTHERN LOWER MICHIGAN  
 
CITY SKY/WX TMP DP RH WIND PRES REMARKS
 
ALPENA CLOUDY 41 31 67 NW10 30.03S  
BEAVER ISLAND CLOUDY 37 34 89 CALM 30.07S  
BELLAIRE CLOUDY 42 31 66 CALM 30.07R  
CADILLAC CLOUDY 40 36 87 N5 30.03R  
CHARLEVOIX CLOUDY 38 35 86 N5 30.10S WCI 35  
FRANKFORT CLOUDY 42 34 73 N3 30.07S  
GAYLORD CLOUDY 41 27 57 VRB6 30.03F  
GRAYLING CLOUDY 39 33 78 NW3 30.04S  
HARBOR SPRINGS CLOUDY 38 32 78 CALM 30.06F  
HOUGHTON LAKE CLOUDY 41 33 73 N5 30.04R  
MANISTEE CLOUDY 42 40 92 NW8 30.06R  
OSCODA MIX PCPN 41 36 82 CALM 30.03S  
PELLSTON CLOUDY 39 30 70 NW3 30.06F  
ROGERS CITY PTCLDY 37 32 82 NW5 30.06F WCI 33  
TRAVERSE CITY CLOUDY 44 33 65 CALM 30.06R  

 
MIZ007>008-015-290600-  
EASTERN UPPER MICHIGAN  
 
CITY SKY/WX TMP DP RH WIND PRES REMARKS
 
KINROSS CLOUDY 36 27 69 NW9 30.05S WCI 29  
MACKINAC ISLAN CLOUDY 38 29 72 W6 30.05F WCI 33  
NEWBERRY CLOUDY 34 27 75 NW7G16 30.07R WCI 28  
S. S. MARIE CLOUDY 37 27 67 W12G22 30.05R WCI 29  
MUNISING N/A 36 28 73 NW6 30.10R WCI 31  

 
MIZ004>006-011>014-085-290600-  
CENTRAL UPPER MICHIGAN  
 
CITY SKY/WX TMP DP RH WIND PRES REMARKS
 
MANISTIQUE CLOUDY 36 30 79 NW15 30.08R WCI 26  
ESCANABA CLOUDY 39 28 64 NW8 30.10R WCI 33  
MENOMINEE CLOUDY 41 30 65 CALM 30.10R  
SAWYER-GWINN CLOUDY 32 25 76 NW3 30.09F  

 
MIZ001>003-009>011-084-290600-  
WESTERN UPPER MICHIGAN  
 
CITY SKY/WX TMP DP RH WIND PRES REMARKS
 
IRON MOUNTAIN CLEAR 33 23 66 NW8 30.09R WCI 26  
HOUGHTON CLOUDY 35 28 75 NW9 30.11R WCI 28  
COPPER HARBOR N/A 37 29 72 N15 30.11R WCI 28  
IRONWOOD CLEAR 27 25 92 SW3 30.14S  

 
 
ABBREVIATIONS USED IN REMARKS  
TC - TEMPERATURE IN CELSIUS  
WCI - WIND CHILL INDEX  
HX - HEAT INDEX  
VSB - VISIBILITY  
 
 
 
CLICK HERE TO GO TO PREVIOUS BULLETINS.

The Nexlab MI Page Main Text Page